Tracking 30970 objects as of 3-Jul-2025
HD Live streaming from Space Station
objects crossing your sky now

STARLINK-2587

Track STARLINK-2587 now!
10-day predictions
STARLINK-2587 is classified as:


NORAD ID: 48399
Int'l Code: 2021-038AY
Perigee: 553.4 km
Apogee: 555.3 km
Inclination: 53.1 °
Period: 95.6 minutes
Semi major axis: 6925 km
RCS: Unknown
Launch date: May 4, 2021
Source: United States (US)
Launch site: AIR FORCE EASTERN TEST RANGE (AFETR)
Your satellite tracking list
IRIDIUM 33 DEB
Track 1 satellite(s)




NASA's NSSDC Master Catalog

Two Line Element Set (TLE):
1 48399U 21038AY  25183.81900256 -.00000429  00000-0 -98938-5 0  9996
2 48399  53.0558  23.3300 0001409  89.3886 270.7264 15.06397497230855
Source of the keplerian elements: AFSPC